VK3GY-13 Weather Reports


Display with metric or nautical units.
time (UTC)temp
F
wind
direction
speed
MPH
gust
MPH
rain 1hr
in
rain 24hr
in
rain mn
in
humidity
%
barometer
mb
20260506062008 62 332 8.0 12.0 0.00 0.00 0.00 63 1013.0
20260506061009 62 327 6.0 13.0 0.00 0.00 0.00 63 1013.0
20260506051009 63 337 6.0 15.0 0.00 0.00 0.00 62 1014.0
20260506045009 65 315 8.0 18.0 0.00 0.00 0.00 58 1014.3
20260506044009 64 309 7.0 16.0 0.00 0.00 0.00 59 1014.4
20260506043009 63 309 10.0 18.0 0.00 0.00 0.00 61 1014.7
20260506042009 63 302 7.0 17.0 0.00 0.00 0.00 62 1014.7
20260506041009 63 312 7.0 18.0 0.00 0.00 0.00 61 1014.9
20260506040009 63 347 6.0 15.0 0.00 0.00 0.00 61 1015.1
20260506035008 63 319 7.0 15.0 0.00 0.00 0.00 61 1015.2
20260506034009 63 333 7.0 15.0 0.00 0.00 0.00 61 1015.4
20260506033009 62 323 8.0 16.0 0.00 0.00 0.00 61 1015.5
20260506032009 62 327 7.0 15.0 0.00 0.00 0.00 63 1015.6
20260506031009 62 339 6.0 16.0 0.00 0.00 0.00 62 1015.9
20260506030009 62 312 6.0 15.0 0.00 0.00 0.00 62 1016.2
20260506025008 62 313 6.0 20.0 0.00 0.00 0.00 61 1016.3
20260506024009 62 301 9.0 16.0 0.00 0.00 0.00 61 1016.6
20260506023009 61 310 7.0 13.0 0.00 0.00 0.00 62 1016.7
20260506022009 61 321 6.0 16.0 0.00 0.00 0.00 64 1017.0
20260506021009 60 308 6.0 16.0 0.00 0.00 0.00 64 1017.2
20260506020009 60 317 7.0 12.0 0.00 0.00 0.00 64 1017.5
20260506015009 60 297 7.0 13.0 0.00 0.00 0.00 64 1017.6
20260506014008 60 306 4.0 13.0 0.00 0.00 0.00 64 1017.8
20260506013009 60 314 5.0 17.0 0.00 0.00 0.00 63 1018.0
20260506012008 60 293 8.0 13.0 0.00 0.00 0.00 63 1018.0
20260506011009 60 289 9.0 14.0 0.00 0.00 0.00 64 1018.1
20260506010009 60 291 8.0 12.0 0.00 0.00 0.00 64 1018.2
20260506005009 60 320 6.0 12.0 0.00 0.00 0.00 65 1018.2
20260506004009 60 299 6.0 15.0 0.00 0.00 0.00 66 1018.3
20260506003008 60 311 6.0 15.0 0.00 0.00 0.00 66 1018.4
20260506002010 60 318 4.0 12.0 0.00 0.00 0.00 67 1018.6
20260506001009 60 318 4.0 12.0 0.00 0.00 0.00 68 1018.6
20260506000009 60 297 5.0 12.0 0.00 0.00 0.00 68 1018.7
20260505235009 59 314 5.0 12.0 0.00 0.00 0.00 68 1018.7
20260505234009 59 299 4.0 10.0 0.00 0.00 0.00 68 1018.9
20260505233009 59 295 7.0 10.0 0.00 0.00 0.00 68 1018.9
20260505232009 59 322 4.0 9.0 0.00 0.00 0.00 69 1019.0
20260505231008 58 306 4.0 9.0 0.00 0.00 0.00 70 1019.1
20260505230008 58 293 5.0 13.0 0.00 0.00 0.00 71 1019.1
20260505225009 58 330 2.0 10.0 0.00 0.00 0.00 72 1019.1
20260505224009 57 330 4.0 10.0 0.00 0.00 0.00 74 1019.1
20260505223009 56 325 3.0 8.0 0.00 0.00 0.00 76 1019.2
20260505222009 56 329 2.0 5.0 0.00 0.00 0.00 76 1019.2
20260505221009 56 328 3.0 6.0 0.00 0.00 0.00 76 1019.2
20260505220009 56 331 2.0 5.0 0.00 0.00 0.00 77 1019.2
20260505215009 55 331 2.0 6.0 0.00 0.00 0.00 77 1019.1
20260505214009 55 333 2.0 6.0 0.00 0.00 0.00 77 1019.2
20260505213009 55 333 2.0 6.0 0.00 0.00 0.00 77 1019.1
20260505212008 55 331 2.0 6.0 0.00 0.00 0.00 78 1019.1
20260505211009 55 329 2.0 6.0 0.00 0.00 0.00 78 1019.1
20260505210009 55 330 2.0 6.0 0.00 0.00 0.00 78 1019.1
20260505205009 55 329 3.0 5.0 0.00 0.00 0.00 78 1019.1
20260505204008 55 329 2.0 5.0 0.00 0.00 0.00 78 1019.1
20260505203008 55 329 1.0 5.0 0.00 0.00 0.00 78 1019.1
20260505202010 55 329 3.0 6.0 0.00 0.00 0.00 78 1019.1
20260505201009 55 326 2.0 8.0 0.00 0.00 0.00 79 1019.1
20260505200008 55 321 2.0 8.0 0.00 0.00 0.00 79 1019.2
20260505195009 55 335 3.0 9.0 0.00 0.00 0.00 80 1019.2
20260505194009 55 323 3.0 6.0 0.00 0.00 0.00 80 1019.2
20260505193010 55 313 2.0 6.0 0.00 0.00 0.00 81 1019.3
20260505192009 55 288 2.0 5.0 0.00 0.00 0.00 82 1019.4
20260505191009 55 284 2.0 3.0 0.00 0.00 0.00 83 1019.5
20260505190009 55 284 2.0 7.0 0.00 0.00 0.00 83 1019.5
20260505185010 55 281 2.0 3.0 0.00 0.00 0.00 84 1019.5
20260505184008 55 281 1.0 6.0 0.00 0.00 0.00 84 1019.6
20260505183009 55 281 3.0 7.0 0.00 0.00 0.00 84 1019.5
20260505182009 55 265 1.0 3.0 0.00 0.00 0.00 85 1019.5
20260505181009 55 265 1.0 3.0 0.00 0.00 0.00 85 1019.4
20260505180009 54 265 1.0 3.0 0.00 0.00 0.00 85 1019.5
20260505175009 54 264 2.0 3.0 0.00 0.00 0.00 85 1019.5
20260505174009 54 264 1.0 3.0 0.00 0.00 0.00 85 1019.5
20260505173009 54 263 2.0 3.0 0.00 0.00 0.00 85 1019.6
20260505172009 54 263 1.0 3.0 0.00 0.00 0.00 85 1019.7
20260505171009 54 263 1.0 3.0 0.00 0.00 0.00 85 1019.7
20260505170009 54 263 1.0 2.0 0.00 0.00 0.00 85 1019.8
20260505165009 54 263 1.0 2.0 0.00 0.00 0.00 85 1019.9
20260505164009 54 263 0.0 3.0 0.00 0.00 0.00 85 1020.1
20260505163009 54 263 1.0 3.0 0.00 0.00 0.00 84 1020.1
20260505162011 54 263 1.0 3.0 0.00 0.00 0.00 84 1020.2
20260505161009 54 263 1.0 3.0 0.00 0.00 0.00 84 1020.3
20260505153009 54 262 2.0 3.0 0.00 0.00 0.00 84 1020.6
20260505152009 54 262 1.0 3.0 0.00 0.00 0.00 84 1020.8
20260505151009 54 262 0.0 1.0 0.00 0.00 0.00 84 1020.8
20260505125009 55 257 1.0 3.0 0.00 0.00 0.00 82 1021.0
20260505124009 56 257 1.0 3.0 0.00 0.00 0.00 82 1021.1
20260505123009 56 257 1.0 3.0 0.00 0.00 0.00 81 1021.2
20260505122009 56 257 1.0 3.0 0.00 0.00 0.00 81 1021.2
20260505121009 56 257 0.0 1.0 0.00 0.00 0.00 82 1021.3
20260505120009 56 257 0.0 3.0 0.00 0.00 0.00 82 1021.3
20260505115009 56 257 1.0 3.0 0.00 0.00 0.00 82 1021.3
20260505114009 56 257 0.0 3.0 0.00 0.00 0.00 82 1021.3
20260505113009 57 197 2.0 3.0 0.00 0.00 0.00 82 1021.3
20260505112009 57 197 1.0 2.0 0.00 0.00 0.00 82 1021.3
20260505111009 57 197 0.0 3.0 0.00 0.00 0.00 82 1021.4
20260505102011 57 197 0.0 2.0 0.00 0.00 0.00 82 1021.2
20260505101009 57 197 1.0 3.0 0.00 0.00 0.00 82 1021.3
20260505100009 57 197 0.0 3.0 0.00 0.00 0.00 82 1021.3
20260505095009 57 197 1.0 3.0 0.00 0.00 0.00 82 1021.4
20260505094009 57 197 0.0 2.0 0.00 0.00 0.00 81 1021.4
20260505093009 57 197 0.0 3.0 0.00 0.00 0.00 82 1021.3
20260505092009 57 197 1.0 3.0 0.00 0.00 0.00 82 1021.3
20260505091009 57 197 1.0 3.0 0.00 0.00 0.00 82 1021.2
20260505090009 57 197 1.0 3.0 0.00 0.00 0.00 82 1021.2
20260505085008 57 197 0.0 2.0 0.00 0.00 0.00 82 1021.1
20260505084009 57 197 1.0 2.0 0.00 0.00 0.00 82 1021.0
20260505083009 57 197 0.0 2.0 0.00 0.00 0.00 82 1021.0
20260505082009 57 197 0.0 1.0 0.00 0.00 0.00 82 1020.9
20260505081009 57 197 0.0 1.0 0.00 0.00 0.00 82 1020.7
20260505080008 57 197 1.0 1.0 0.00 0.00 0.00 82 1020.6
20260505075009 57 197 1.0 3.0 0.00 0.00 0.00 82 1020.5
20260505074009 58 197 0.0 1.0 0.00 0.00 0.00 82 1020.4
20260505073009 58 197 1.0 2.0 0.00 0.00 0.00 81 1020.3
20260505072009 58 197 1.0 2.0 0.00 0.00 0.00 81 1020.2
20260505071009 58 197 1.0 3.0 0.00 0.00 0.00 81 1020.1